Abingdon, VA

3:23 PM EDT on September 27, 2016 (GMT -0400)
Virginia Highlands

Weather History for KVJI - December, 2012

Change the Weather History Date:

Saturday, December 8, 2012

  Actual Average (KTRI) Record (KTRI)
Temperature  
Mean Temperature 56 °F 39 °F  
Max Temperature 65 °F 50 °F 77 °F (1978)
Min Temperature 47 °F 29 °F 10 °F (2006)
Degree Days  
Heating Degree Days 10 26  
Month to date heating degree days 198  
Since 1 July heating degree days 1084  
Cooling Degree Days 0 0  
Month to date cooling degree days 0  
Year to date cooling degree days 981  
Growing Degree Days 6 (Base 50)    
Moisture  
Dew Point 52 °F    
Average Humidity 92    
Maximum Humidity 100    
Minimum Humidity 66    
Precipitation  
Precipitation 0.00 in 0.11 in 1.22 in (1998)
Month to date precipitation 0.91  
Year to date precipitation 38.55  
Snow  
Snow 0.00 in 0.00 in - ()
Month to date snowfall 0.4  
Since 1 July snowfall 0.7  
Snow Depth -    
Sea Level Pressure  
Sea Level Pressure 30.00 in    
Wind  
Wind Speed 2 mph (West)    
Max Wind Speed 10 mph    
Max Gust Speed 17 mph    
Visibility 9 miles    
Events Rain    
T = Trace of Precipitation, MM = Missing Value Source: NWS Daily Summary

Daily Weather History Graph

Daily Weather History Graph

Search for Another Location

Airport or City:

Trip Planner

Search our weather history database for the weather conditions in past years. The results will help you decide how hot, cold, wet, or windy it might be!

Date:

Astronomy

Dec. 08, 2012 Rise Set
Actual Time 7:28 AM EST 5:12 PM EST
Civil Twilight 6:59 AM EST 5:40 PM EST
Nautical Twilight 6:27 AM EST 6:13 PM EST
Astronomical Twilight 5:56 AM EST 6:44 PM EST
Moon 1:58 AM EST (12/8) 1:35 PM EST (12/8)
Length of Visible Light 10h 41m
Length of Day
9h 43m
Waning Crescent, 28% of the Moon is Illuminated
Dec 8
Waning Crescent
Dec 13
New
Dec 20
First Quarter
Dec 28
Full
Jan 4
Last Quarter

Hourly Weather History & Observations

Time (EST) Temp. Dew Point Humidity Pressure Visibility Wind Dir Wind Speed Gust Speed Precip Events Conditions
12:15 AM 48.2 °F 48.2 °F 100% 29.99 in 10.0 mi Calm Calm - N/A   Overcast
12:35 AM 49.1 °F 49.1 °F 100% 29.99 in 10.0 mi Calm Calm - N/A   Overcast
12:55 AM 48.4 °F 48.2 °F 99% 29.98 in 10.0 mi Calm Calm - N/A   Overcast
1:15 AM 47.8 °F 47.8 °F 100% 29.98 in 7.0 mi Calm Calm - N/A   Overcast
1:35 AM 48.4 °F 48.4 °F 100% 29.98 in 10.0 mi Calm Calm - N/A   Overcast
1:55 AM 48.4 °F 48.4 °F 100% 29.98 in 10.0 mi Calm Calm - N/A   Overcast
2:15 AM 49.1 °F 49.1 °F 100% 29.99 in 7.0 mi West 3.5 mph - N/A   Overcast
2:35 AM 49.3 °F 49.3 °F 100% 29.99 in 10.0 mi WSW 3.5 mph - N/A   Overcast
2:55 AM 50.4 °F 50.4 °F 100% 29.99 in 10.0 mi SW 3.5 mph - N/A   Overcast
3:15 AM 50.9 °F 50.2 °F 97% 29.99 in 10.0 mi West 3.5 mph - N/A   Overcast
3:35 AM 50.9 °F 50.2 °F 97% 29.98 in 10.0 mi West 5.8 mph - N/A   Overcast
3:55 AM 51.1 °F 50.4 °F 97% 29.98 in 10.0 mi West 5.8 mph - N/A   Overcast
4:15 AM 51.3 °F 50.4 °F 97% 29.98 in 10.0 mi West 3.5 mph - N/A   Overcast
4:35 AM 50.9 °F 50.0 °F 97% 29.98 in 10.0 mi West 3.5 mph - N/A   Overcast
4:55 AM 50.9 °F 50.0 °F 97% 29.98 in 10.0 mi Calm Calm - N/A   Overcast
5:15 AM 50.7 °F 50.0 °F 97% 29.98 in 10.0 mi Calm Calm - N/A   Overcast
5:35 AM 51.1 °F 50.2 °F 97% 29.99 in 10.0 mi Calm Calm - N/A   Overcast
5:55 AM 51.4 °F 50.4 °F 96% 29.99 in 10.0 mi Calm Calm - N/A   Overcast
6:15 AM 51.1 °F 50.0 °F 96% 29.99 in 10.0 mi Calm Calm - N/A   Overcast
6:35 AM 50.5 °F 50.2 °F 99% 29.99 in 10.0 mi Calm Calm - N/A   Overcast
6:55 AM 50.2 °F 50.2 °F 100% 30.00 in 10.0 mi Calm Calm - N/A   Overcast
7:15 AM 50.9 °F 50.5 °F 99% 30.00 in 10.0 mi Calm Calm - N/A   Overcast
7:35 AM 51.8 °F 50.9 °F 97% 30.01 in 10.0 mi Calm Calm - N/A Rain Light Rain
7:55 AM 50.9 °F 50.5 °F 99% 30.01 in 7.0 mi Calm Calm - N/A   Overcast
8:15 AM 51.3 °F 51.1 °F 99% 30.01 in 7.0 mi Calm Calm - N/A   Overcast
8:35 AM 51.8 °F 51.4 °F 99% 30.01 in 5.0 mi Calm Calm - N/A   Overcast
8:55 AM 51.4 °F 51.4 °F 100% 30.02 in 4.0 mi Calm Calm - N/A   Overcast
9:15 AM 52.2 °F 52.2 °F 100% 30.02 in 5.0 mi Calm Calm - N/A   Overcast
9:35 AM 51.8 °F 51.8 °F 100% 30.03 in 3.0 mi Calm Calm - N/A Rain Light Rain
9:55 AM 52.3 °F 52.3 °F 100% 30.03 in 3.0 mi Calm Calm - N/A   Light Drizzle
10:15 AM 53.6 °F 53.6 °F 100% 30.04 in 4.0 mi Calm Calm - N/A   Overcast
10:35 AM 54.1 °F 54.1 °F 100% 30.04 in 5.0 mi Calm Calm - N/A   Overcast
10:55 AM 54.5 °F 54.1 °F 99% 30.04 in 5.0 mi WSW 3.5 mph - N/A   Overcast
11:15 AM 55.0 °F 54.3 °F 97% 30.03 in 5.0 mi WSW 4.6 mph - N/A   Overcast
11:35 AM 55.6 °F 54.7 °F 97% 30.02 in 7.0 mi WSW 3.5 mph - N/A   Overcast
11:55 AM 56.3 °F 54.7 °F 94% 30.02 in 7.0 mi WSW 5.8 mph - N/A   Overcast
12:15 PM 57.2 °F 54.9 °F 92% 30.01 in 10.0 mi West 4.6 mph - N/A   Overcast
12:35 PM 57.2 °F 54.9 °F 92% 30.00 in 10.0 mi West 4.6 mph - N/A   Overcast
12:55 PM 58.5 °F 55.4 °F 90% 29.99 in 10.0 mi WSW 6.9 mph - N/A   Overcast
1:15 PM 60.4 °F 56.5 °F 87% 29.98 in 10.0 mi WSW 5.8 mph - N/A   Overcast
1:35 PM 61.7 °F 55.2 °F 79% 29.98 in 10.0 mi West 10.4 mph 17.3 mph N/A   Mostly Cloudy
1:55 PM 62.6 °F 54.9 °F 76% 29.97 in 10.0 mi West 9.2 mph - N/A   Mostly Cloudy
2:15 PM 62.6 °F 54.7 °F 75% 29.98 in 10.0 mi West 10.4 mph - N/A   Mostly Cloudy
2:35 PM 63.3 °F 54.9 °F 74% 29.97 in 10.0 mi West 9.2 mph - N/A   Mostly Cloudy
2:55 PM 63.7 °F 54.5 °F 72% 29.97 in 10.0 mi West 8.1 mph - N/A   Scattered Clouds
3:15 PM 64.6 °F 54.1 °F 69% 29.98 in 10.0 mi West 10.4 mph - N/A   Clear
3:35 PM 64.9 °F 54.0 °F 68% 29.98 in 10.0 mi West 8.1 mph - N/A   Clear
3:55 PM 64.8 °F 53.2 °F 66% 29.98 in 10.0 mi West 9.2 mph - N/A   Clear
4:15 PM 64.4 °F 53.2 °F 67% 29.98 in 10.0 mi NW 5.8 mph - N/A   Scattered Clouds
4:35 PM 63.7 °F 53.1 °F 68% 29.98 in 10.0 mi WNW 5.8 mph - N/A   Clear
4:55 PM 62.8 °F 53.1 °F 71% 29.98 in 10.0 mi WSW 5.8 mph - N/A   Clear
5:15 PM 62.1 °F 52.9 °F 72% 29.98 in 10.0 mi Calm Calm - N/A   Clear
5:35 PM 60.4 °F 52.9 °F 76% 29.99 in 10.0 mi Calm Calm - N/A   Clear
5:55 PM 57.7 °F 52.3 °F 82% 29.99 in 10.0 mi Calm Calm - N/A   Clear
6:15 PM 57.2 °F 52.3 °F 84% 29.99 in 10.0 mi Calm Calm - N/A   Scattered Clouds
6:35 PM 55.8 °F 51.8 °F 87% 30.00 in 10.0 mi Calm Calm - N/A   Scattered Clouds
7:15 PM 55.0 °F 52.2 °F 90% 30.01 in 10.0 mi Calm Calm - N/A   Mostly Cloudy
7:35 PM 53.8 °F 51.6 °F 92% 30.01 in 10.0 mi Calm Calm - N/A   Overcast
7:55 PM 54.9 °F 52.2 °F 91% 30.01 in 10.0 mi Calm Calm - N/A   Overcast
8:15 PM 53.6 °F 51.6 °F 93% 30.02 in 10.0 mi Calm Calm - N/A   Overcast
8:35 PM 55.9 °F 52.7 °F 89% 30.02 in 10.0 mi Calm Calm - N/A   Overcast
9:15 PM 54.9 °F 52.9 °F 93% 30.02 in 10.0 mi Calm Calm - N/A   Overcast
9:35 PM 53.4 °F 52.2 °F 95% 30.02 in 10.0 mi Calm Calm - N/A   Mostly Cloudy
10:15 PM 51.6 °F 51.4 °F 99% 30.02 in 7.0 mi Calm Calm - N/A   Clear
10:35 PM 50.9 °F 50.9 °F 100% 30.02 in 7.0 mi Calm Calm - N/A   Clear
10:55 PM 50.5 °F 50.5 °F 100% 30.02 in 7.0 mi Calm Calm - N/A   Clear
11:15 PM 49.8 °F 49.8 °F 100% 30.02 in 7.0 mi Calm Calm - N/A   Clear
11:35 PM 48.2 °F 48.2 °F 100% 30.03 in 5.0 mi Calm Calm - N/A   Clear
11:55 PM 48.7 °F 48.7 °F 100% 30.03 in 4.0 mi Calm Calm - N/A   Clear